Weather History for Waupaca, WI

Change the Weather History Date:

Monday, August 26, 2013

  Actual Average Record
Temperature  
Mean Temperature 82 °F -  
Max Temperature 95 °F 79 °F 96 °F (1953)
Min Temperature 70 °F 58 °F 42 °F (1964)
Cooling Degree Days 18    
Growing Degree Days 32 (Base 50)    
Moisture  
Dew Point 69 °F    
Average Humidity 69    
Maximum Humidity 93    
Minimum Humidity 38    
Precipitation  
Precipitation 0.55 in - - ()
Sea Level Pressure  
Sea Level Pressure 30.01 in    
Wind  
Wind Speed 6 mph (SW)    
Max Wind Speed 17 mph    
Max Gust Speed 21 mph    
Visibility 10 miles    
Events Rain    
Averages and records for this station are not official NWS values.
T = Trace of Precipitation, MM = Missing Value Source: NWS Daily Summary

Daily Weather History Graph

Daily Weather History Graph

Search for Another Location

Airport:

Trip Planner

Search our weather history database for the weather conditions in past years. The results will help you decide how hot, cold, wet, or windy it might be!

Date:

Astronomy

Aug. 26, 2013 Rise Set
Actual Time 6:12 AM CDT 7:42 PM CDT
Civil Twilight 5:41 AM CDT 8:12 PM CDT
Nautical Twilight 5:05 AM CDT 8:49 PM CDT
Astronomical Twilight 4:25 AM CDT 9:28 PM CDT
Moon 10:37 PM CDT (8/26) 12:29 PM CDT (8/26)
Length of Visible Light 14h 30m
Length of Day
13h 30m
Waning Gibbous, 66% of the Moon is Illuminated
Aug 26
Waning Gibbous
Aug 28
Last Quarter
Sep 5
New
Sep 12
First Quarter
Sep 19
Full

Hourly Weather History & Observations

Time (CDT) Temp. Heat Index Dew Point Humidity Pressure Visibility Wind Dir Wind Speed Gust Speed Precip Events Conditions
12:15 AM 78.8 °F - 66.2 °F 65% 30.03 in 10.0 mi SW 10.4 mph - N/A   Clear
12:35 AM 78.3 °F - 65.8 °F 65% 30.03 in 10.0 mi SW 8.1 mph - N/A   Clear
12:55 AM 78.1 °F - 65.7 °F 65% 30.05 in 10.0 mi SSW 6.9 mph - N/A   Clear
1:15 AM 77.7 °F - 66.0 °F 67% 30.05 in 10.0 mi SSW 5.8 mph - N/A   Clear
1:35 AM 76.5 °F - 65.3 °F 68% 30.04 in 10.0 mi SSW 4.6 mph - N/A   Clear
1:55 AM 76.3 °F - 65.7 °F 70% 30.04 in 10.0 mi SSW 4.6 mph - N/A   Clear
2:15 AM 75.4 °F - 65.5 °F 71% 30.03 in 10.0 mi South 3.5 mph - N/A   Clear
2:35 AM 74.5 °F - 65.7 °F 74% 30.02 in 10.0 mi SSW 4.6 mph - N/A   Clear
2:55 AM 74.5 °F - 65.7 °F 74% 30.02 in 10.0 mi SSW 4.6 mph - N/A   Clear
3:15 AM 74.5 °F - 64.9 °F 72% 30.03 in 10.0 mi SSW 5.8 mph - N/A   Clear
3:35 AM 75.2 °F - 64.9 °F 70% 30.04 in 10.0 mi SSW 4.6 mph - N/A   Clear
3:55 AM 74.5 °F - 64.9 °F 72% 30.04 in 10.0 mi SSW 3.5 mph - N/A   Clear
4:15 AM 73.6 °F - 64.6 °F 73% 30.04 in 10.0 mi South 3.5 mph - N/A   Clear
4:35 AM 72.7 °F - 64.4 °F 75% 30.04 in 10.0 mi SSW 3.5 mph - N/A   Clear
4:55 AM 72.7 °F - 64.4 °F 75% 30.03 in 10.0 mi SSW 4.6 mph - N/A   Clear
5:15 AM 73.4 °F - 64.0 °F 72% 30.03 in 10.0 mi SSW 4.6 mph - N/A   Clear
5:35 AM 73.6 °F - 63.9 °F 72% 30.04 in 10.0 mi Calm Calm - N/A   Clear
5:55 AM 74.5 °F - 64.4 °F 71% 30.06 in 10.0 mi Calm Calm - N/A   Mostly Cloudy
6:15 AM 74.5 °F - 64.0 °F 70% 30.06 in 10.0 mi Calm Calm - N/A   Mostly Cloudy
6:35 AM 74.5 °F - 64.6 °F 71% 30.09 in 10.0 mi NNE 8.1 mph 18.4 mph N/A   Mostly Cloudy
6:55 AM 76.3 °F - 64.4 °F 67% 30.11 in 10.0 mi North 5.8 mph - N/A   Overcast
7:15 AM 76.5 °F - 64.6 °F 67% 30.12 in 10.0 mi Calm Calm - N/A   Overcast
7:35 AM 76.3 °F - 65.3 °F 69% 30.13 in 10.0 mi NNW 8.1 mph - N/A   Overcast
7:55 AM 78.1 °F - 64.6 °F 63% 30.13 in 10.0 mi NNW 4.6 mph - N/A   Overcast
8:15 AM 76.5 °F - 64.4 °F 66% 30.12 in 10.0 mi Calm Calm - N/A   Overcast
8:35 AM 75.7 °F - 65.1 °F 69% 30.10 in 10.0 mi Calm Calm - N/A   Overcast
8:55 AM 75.4 °F - 64.9 °F 70% 30.11 in 10.0 mi Calm Calm - N/A   Overcast
9:15 AM 74.3 °F - 66.4 °F 76% 30.15 in 7.0 mi NW 10.4 mph - 0.01 in Rain Heavy Rain
9:35 AM 71.4 °F - 67.5 °F 87% 30.13 in 2.0 mi SW 3.5 mph - 0.12 in Rain Heavy Rain
9:55 AM 71.1 °F - 68.4 °F 91% 30.16 in 1.2 mi West 6.9 mph - 0.22 in Rain Heavy Rain
10:15 AM 70.2 °F - 67.6 °F 92% 30.10 in 3.0 mi South 8.1 mph - 0.10 in Rain Rain
10:35 AM 70.0 °F - 67.6 °F 92% 30.06 in 7.0 mi South 9.2 mph - 0.17 in Rain Light Rain
10:55 AM 71.1 °F - 69.1 °F 93% 30.05 in 10.0 mi SSW 8.1 mph - 0.23 in Rain Light Rain
11:15 AM 72.7 °F - 70.5 °F 93% 30.05 in 10.0 mi SSW 9.2 mph - 0.04 in   Clear
11:35 AM 74.5 °F - 71.6 °F 91% 30.02 in 10.0 mi South 10.4 mph - 0.06 in   Clear
11:55 AM 78.4 °F - 71.8 °F 80% 30.01 in 10.0 mi SSW 16.1 mph 19.6 mph 0.08 in   Clear
12:15 PM 81.5 °F 85.7 °F 71.2 °F 71% 30.00 in 10.0 mi SW 11.5 mph - 0.02 in   Clear
12:35 PM 82.8 °F 86.7 °F 69.8 °F 65% 29.99 in 10.0 mi SW 17.3 mph 20.7 mph 0.02 in   Clear
12:55 PM 85.1 °F 89.1 °F 69.4 °F 59% 29.98 in 10.0 mi SSW 11.5 mph 19.6 mph 0.02 in   Clear
1:15 PM 86.4 °F 90.0 °F 68.5 °F 55% 29.98 in 10.0 mi SSW 11.5 mph 16.1 mph N/A   Clear
1:35 PM 89.1 °F 92.5 °F 67.6 °F 49% 29.97 in 10.0 mi SSW 9.2 mph - N/A   Clear
1:55 PM 92.3 °F 95.6 °F 66.6 °F 43% 29.97 in 10.0 mi SSW 15.0 mph 20.7 mph N/A   Clear
2:15 PM 92.7 °F 94.9 °F 65.3 °F 40% 29.96 in 10.0 mi SSW 13.8 mph - N/A   Clear
2:35 PM 93.2 °F 95.3 °F 64.8 °F 39% 29.97 in 10.0 mi SW 12.7 mph 17.3 mph N/A   Clear
2:55 PM 94.1 °F 96.9 °F 65.3 °F 39% 29.96 in 10.0 mi SW 10.4 mph - N/A   Clear
3:15 PM 94.3 °F 97.2 °F 65.7 °F 39% 29.96 in 10.0 mi SSW 9.2 mph - N/A   Clear
3:35 PM 95.4 °F 99.1 °F 66.9 °F 39% 29.96 in 10.0 mi SSW 6.9 mph - N/A   Clear
3:55 PM 95.5 °F 98.9 °F 66.4 °F 38% 29.96 in 10.0 mi SW 6.9 mph - N/A   Clear
4:15 PM 95.5 °F 99.4 °F 66.7 °F 39% 29.95 in 10.0 mi SSW 5.8 mph - N/A   Clear
4:35 PM 95.5 °F 100.0 °F 67.5 °F 40% 29.95 in 10.0 mi SSW 5.8 mph - N/A   Clear
4:55 PM 94.3 °F 99.8 °F 69.1 °F 44% 29.95 in 10.0 mi West 4.6 mph - N/A   Clear
5:15 PM 92.3 °F 98.6 °F 70.5 °F 49% 29.95 in 10.0 mi Calm Calm - N/A   Scattered Clouds
5:35 PM 92.7 °F 98.8 °F 70.5 °F 48% 29.95 in 10.0 mi WSW 4.6 mph - N/A   Scattered Clouds
5:55 PM 92.3 °F 98.6 °F 70.7 °F 49% 29.94 in 10.0 mi WSW 4.6 mph - N/A   Clear
6:15 PM 91.0 °F 98.7 °F 72.3 °F 54% 29.94 in 10.0 mi Calm Calm - N/A   Clear
6:35 PM 92.1 °F 100.5 °F 72.5 °F 53% 29.94 in 10.0 mi Calm Calm - N/A   Clear
6:55 PM 88.3 °F 99.5 °F 75.9 °F 67% 29.93 in 10.0 mi Calm Calm - N/A   Clear
7:15 PM 86.2 °F 96.0 °F 75.7 °F 71% 29.93 in 10.0 mi Calm Calm - N/A   Clear
7:35 PM 84.2 °F 92.6 °F 75.6 °F 75% 29.95 in 10.0 mi NNE 4.6 mph - N/A   Clear
7:55 PM 82.6 °F 89.7 °F 75.2 °F 78% 29.95 in 10.0 mi NNE 4.6 mph - N/A   Clear
8:15 PM 81.5 °F 87.8 °F 75.2 °F 81% 29.94 in 10.0 mi Calm Calm - N/A   Clear
8:35 PM 80.8 °F 86.5 °F 75.2 °F 83% 29.95 in 10.0 mi ENE 3.5 mph - N/A   Clear
8:55 PM 80.2 °F 85.2 °F 74.7 °F 83% 29.95 in 10.0 mi Calm Calm - N/A   Clear
9:15 PM 79.9 °F - 74.5 °F 83% 29.95 in 10.0 mi Calm Calm - N/A   Clear
9:35 PM 79.3 °F - 74.7 °F 86% 29.95 in 10.0 mi Calm Calm - N/A   Clear
9:55 PM 79.0 °F - 74.3 °F 85% 29.95 in 10.0 mi Calm Calm - N/A   Clear
10:15 PM 79.0 °F - 74.7 °F 87% 29.95 in 10.0 mi Calm Calm - N/A   Clear
10:35 PM 78.3 °F - 74.8 °F 89% 29.95 in 10.0 mi Calm Calm - N/A   Clear
10:55 PM 78.1 °F - 74.7 °F 89% 29.94 in 10.0 mi Calm Calm - N/A   Clear
11:15 PM 78.1 °F - 74.8 °F 90% 29.93 in 10.0 mi Calm Calm - N/A   Clear
11:35 PM 78.1 °F - 75.2 °F 91% 29.93 in 10.0 mi Calm Calm - N/A   Clear
11:55 PM 78.1 °F - 75.2 °F 91% 29.94 in 10.0 mi Calm Calm - N/A   Clear